• Processing (Info)

  • MPEC 2004-J49 : 2004 JO1

    The following Minor Planet Electronic Circular may be linked-to from your own Web pages, but must not otherwise be redistributed electronically.

    A form allowing access to any MPEC is at the bottom of this page.


    Read MPEC 2004-J48 Read MPEC 2004-J50


    M.P.E.C. 2004-J49                                Issued 2004 May 12, 17:21 UT
    
         The Minor Planet Electronic Circulars contain information on unusual
             minor planets and routine data on comets.  They are published
       on behalf of Commission 20 of the International Astronomical Union by the
              Minor Planet Center, Smithsonian Astrophysical Observatory,
                              Cambridge, MA 02138, U.S.A.
    
             Supported in part by the Steven and Michele Kirsch Foundation
                 Prepared using the Tamkin Foundation Computer Network
    
                                  MPC@CFA.HARVARD.EDU
              URL http://cfa-www.harvard.edu/iau/mpc.html  ISSN 1523-6714
    
                                       2004 JO1
    
    Observations:
         K04J01O* C2004 05 11.24913 15 15 42.12 +39 28 18.7          18.9   EJ049704
         K04J01O  C2004 05 11.25849 15 15 37.39 +39 28 48.1          19.3   EJ049704
         K04J01O  C2004 05 11.26787 15 15 32.61 +39 29 17.0          19.2   EJ049704
         K04J01O  C2004 05 11.28641 15 15 23.24 +39 30 12.4          19.5   EJ049704
         K04J01O  C2004 05 11.95336 15 09 48.57 +40 03 55.8                 EJ049246
         K04J01O  C2004 05 11.95448 15 09 47.97 +40 03 58.8                 EJ049246
         K04J01O  C2004 05 11.95525 15 09 47.58 +40 04 01.2                 EJ049246
         K04J01O  C2004 05 11.95565 15 09 47.37 +40 04 02.6                 EJ049246
         K04J01O 5C2004 05 12.21146 15 07 35.21 +40 17 10.1          18.5 R EJ049673
         K04J01O 5C2004 05 12.21267 15 07 34.56 +40 17 13.4                 EJ049673
         K04J01O 5C2004 05 12.21377 15 07 34.13 +40 17 16.6                 EJ049673
         K04J01O 5C2004 05 12.21505 15 07 33.22 +40 17 21.7                 EJ049673
         K04J01O 5C2004 05 12.21678 15 07 32.38 +40 17 26.3                 EJ049673
         K04J01O 5C2004 05 12.21910 15 07 31.17 +40 17 34.1                 EJ049673
         K04J01O  C2004 05 12.25543 15 07 10.26 +40 19 30.7          18.0 R EJ049H06
         K04J01O  C2004 05 12.25739 15 07 09.22 +40 19 36.0          18.2 R EJ049H06
         K04J01O  C2004 05 12.25935 15 07 08.16 +40 19 42.6          18.4 R EJ049H06
         K04J01O  C2004 05 12.30806 15 06 41.46 +40 22 12.7          18.1 R EJ049926
         K04J01O  C2004 05 12.30914 15 06 40.79 +40 22 15.9          18.4 R EJ049926
         K04J01O  C2004 05 12.31027 15 06 40.13 +40 22 19.5          18.4 R EJ049926
         K04J01O  C2004 05 12.32462 15 06 32.15 +40 23 02.2          18.4 R EJ049854
         K04J01O  C2004 05 12.32573 15 06 31.52 +40 23 05.5          18.5 R EJ049854
         K04J01O  C2004 05 12.32683 15 06 30.94 +40 23 08.8          18.6 R EJ049854
    
    Observer details:
    246 Klet Observatory-KLENOT.  Observer M. Tichy.  1.06-m KLENOT Telescope
        + CCD.
    673 Table Mountain Observatory, Wrightwood.  Observer J. Young.  0.6-m
        reflector + CCD.
    704 Lincoln Laboratory ETS, New Mexico.  Observers M. Blythe, F. Shelly,
        M. Bezpalko, R. Huber, L. Manguso, D. Torres, R. Kracke, M. McCleary,
        H. Stange, A. Milner.  Measurers J. Stuart, R. Sayer, J. Evans, J. Kommers.
        1.0-m f/2.15 reflector + CCD.
    854 Sabino Canyon Observatory, Tucson.  Observer J. E. McGaha.  0.356-m f/10.0
        Schmidt-Cassegrain + CCD.
    926 Tenagra II Observatory.  Observers P. R. Holvorcem, M. Schwartz.  0.81-m
        f/7 Ritchey-Chretien + CCD.
    H06 New Mexico Skies Observatory.  Observer R. Hutsebaut.  0.30-m reflector
        + CCD.
    
    Orbital elements:
    2004 JO1
    Epoch 2004 Apr. 25.0 TT = JDT 2453120.5                 MPC
    M 268.75592              (2000.0)            P               Q
    n   0.95129832     Peri.  286.02763     +0.93415006     +0.09157323
    a   1.0239016      Node    69.76122     +0.09453957     +0.86849291
    e   0.4732653      Incl.   21.56951     -0.34413070     +0.48716980
    P   1.04           H   20.3           G   0.15
    From 23 observations 2004 May 11-12.
    
    Ephemeris:
    2004 JO1                 a,e,i = 1.02, 0.47, 22                  q = 0.5393
    Date    TT    R. A. (2000) Decl.     Delta      r     Elong.  Phase     V
    2004 05 05    15 53.68   +34 27.8    0.242    1.170   127.0    43.5    19.2
    2004 05 07    15 43.84   +35 59.5    0.226    1.157   126.0    44.9    19.1
    2004 05 09    15 31.99   +37 35.7    0.211    1.143   124.7    46.6    19.0
    2004 05 11    15 17.68   +39 15.6    0.197    1.129   122.8    48.8    18.9
    2004 05 13    15 00.30   +40 57.2    0.183    1.114   120.5    51.4    18.7
    2004 05 15    14 39.18   +42 36.8    0.170    1.100   117.5    54.7    18.7
    2004 05 17    14 13.56   +44 08.0    0.158    1.085   113.8    58.6    18.6
    2004 05 19    13 42.80   +45 20.7    0.148    1.070   109.3    63.3    18.5
    2004 05 21    13 06.67   +46 00.9    0.138    1.054   103.9    68.8    18.5
    2004 05 23    12 25.84   +45 52.0    0.131    1.038    97.7    75.1    18.6
    2004 05 25    11 42.22   +44 39.1    0.126    1.022    90.8    82.2    18.7
    2004 05 27    10 58.58   +42 16.5    0.123    1.006    83.2    89.8    18.9
    2004 05 29    10 17.68   +38 51.3    0.123    0.990    75.3    97.7    19.2
    2004 05 31    09 41.29   +34 42.8    0.125    0.973    67.5   105.6    19.6
    2004 06 02    09 09.98   +30 14.3    0.130    0.956    60.0   113.2    20.1
    2004 06 04    08 43.50   +25 47.1    0.137    0.939    53.1   120.2    20.7
    
    Kyle E. Smalley              (C) Copyright 2004 MPC           M.P.E.C. 2004-J49
    

    Read MPEC 2004-J48 Read MPEC 2004-J50


    MPEC number:

    Enter an MPEC number in one of the following forms:

    • 1997-B01 (the full form)
    • J97B01 (the packed version of the full form)
    • B01 (the abbreviated form)